Location: Winthrop
(48.4780°N, 120.1850°W)
Time: 16:17:25
(UTC-07:00)

Explorer 7 - Pass Details

Date: 06 February 2023
Orbit: 478 x 657 km, 50.3° (Epoch: 30 March)

Event Time Altitude Azimuth Distance (km) Brightness Sun altitude
Rises 12:57:07 0° 267° (W) 2,691 10.5 25.3°
Reaches altitude 10° 12:59:18 10° 270° (W) 1,830 9.7 25.3°
Maximum altitude 13:03:28 70° 354° (N) 617 7.2 25.1°
Drops below altitude 10° 13:07:56 10° 79° (E) 1,949 9.5 24.9°
Sets 13:10:18 0° 82° (E) 2,884 10.3 24.8°
